Terminal Aerodrome Forecast
Issued by NWS Twin Cities, MN

Home | Current Version | Previous Version | Graphics & Text | Print | Product List | Glossary On
Versions: 1 2 3 4 5 6 7 8 9 10 11 12 13 14 15 16 17 18 19 20 21 22 23 24 25 26 27 28
091
FTUS43 KMPX 230256 AAA
TAFMSP
TAF AMD
KMSP 230256Z 2303/2406 11005KT P6SM FEW250
     FM231200 12008KT P6SM SCT035 BKN110
      TEMPO 2314/2318 3SM TSRA BKN035CB
     FM231800 14012G19KT P6SM SCT040 BKN090
      TEMPO 2400/2404 3SM TSRA BKN035CB
     FM240400 17009KT P6SM VCSH BKN060=

USA.gov is the U.S. government's official web portal to all federal, state and local government web resources and services.